RH
16 18 19 20 22 24 27 32 38 44 49 53 56 60 63 66 68 70 72 79 82 82 79 79 78 78 78 79 78 76 75 74 75 77 79 79 79 80 80 79 77 76 75 77 78 77 73 65 59 55 53 51 48 43 37 31 28 27 27 25 22 20 18 19 20 20 20 21 22 23 24 24 24 25 27 29 30 31 31 32 31 29 25 20 18 17 17 18 19 21 24 24 20 17 14 14 15 16 16 16 18 19 21
15 17 17 18 19 21 23 27 33 40 46 50 54 58 60 64 66 67 68 74 80 84 83 80 80 79 78 79 78 78 77 75 75 75 78 79 80 79 79 80 78 75 75 76 77 77 76 69 63 59 56 54 50 46 40 34 30 28 28 28 25 22 18 19 20 21 21 22 22 24 25 25 26 27 28 30 30 31 31 31 31 30 27 23 20 17 17 18 21 25 29 28 23 18 14 14 14 15 16 17 18 19 20
15 16 17 16 16 17 19 22 28 35 42 47 51 55 58 61 63 65 66 69 75 81 85 84 82 81 80 79 79 78 78 77 75 74 76 78 79 80 79 77 77 76 74 76 76 76 75 72 67 63 60 57 52 48 43 37 32 29 29 30 28 24 20 19 20 22 23 23 23 24 26 26 27 28 29 30 30 30 31 31 31 30 29 27 23 19 17 18 21 25 30 29 26 21 16 14 14 15 16 17 18 19 20
13 14 16 15 15 15 16 18 23 28 36 43 48 52 55 58 60 63 64 66 69 75 82 85 85 83 81 80 79 79 79 78 76 75 74 77 79 80 79 77 77 77 76 76 75 75 74 72 69 66 64 60 55 50 45 40 35 31 30 30 29 27 23 20 21 22 24 24 24 24 26 26 28 29 30 30 30 30 31 31 31 31 30 29 26 22 19 18 20 23 29 30 27 23 18 15 14 15 16 17 18 18 19
12 13 15 14 14 14 15 16 19 23 29 37 44 49 52 55 58 60 61 63 65 69 75 82 84 84 82 81 80 80 79 79 78 76 74 75 78 79 79 78 78 78 79 78 76 75 74 72 70 67 67 64 59 53 48 43 37 33 31 31 31 29 25 22 21 22 24 26 26 27 27 27 28 29 31 31 31 30 30 30 31 31 31 31 28 25 21 21 21 21 23 27 27 24 19 16 15 15 16 17 17 18 18
12 13 14 14 13 14 14 16 17 20 24 30 37 44 49 53 55 57 58 60 62 65 69 76 82 84 84 82 81 81 80 80 80 78 75 75 76 78 79 78 79 79 80 80 79 78 75 74 70 68 68 67 63 57 52 47 41 36 32 32 31 31 28 24 22 22 23 25 27 29 29 28 28 29 31 32 31 30 30 30 31 31 31 31 29 26 23 27 26 23 20 21 23 24 22 18 16 15 15 16 17 18 18
12 12 13 12 12 13 13 16 17 20 23 27 32 38 44 49 52 54 56 57 59 61 65 71 78 83 85 82 81 81 81 81 81 80 78 75 75 77 78 79 80 81 81 82 81 80 78 76 71 68 67 68 66 62 57 52 46 39 34 32 32 32 30 27 24 23 23 24 27 29 31 31 30 29 30 32 32 31 30 30 31 31 32 32 30 27 23 30 31 28 23 20 20 22 27 24 21 19 15 16 17 17 17
11 11 11 11 12 13 14 17 19 21 26 27 31 35 39 44 48 51 53 55 57 59 62 67 74 80 85 83 81 80 81 81 82 82 81 78 75 76 78 81 82 82 83 84 84 83 82 78 74 70 67 68 68 66 62 58 52 44 37 33 32 32 32 30 28 25 24 24 26 29 31 33 32 31 29 30 31 32 31 31 31 32 33 31 28 25 24 30 32 29 24 21 19 20 27 26 23 19 16 16 17 17 17
11 11 11 12 12 13 14 15 17 19 22 25 30 35 38 40 43 46 49 51 55 58 60 64 70 77 83 84 82 80 79 80 81 83 83 80 77 75 76 80 83 84 85 85 85 84 83 80 77 73 67 67 68 68 67 64 58 51 42 36 33 33 33 32 31 29 26 25 26 28 30 33 34 33 31 29 29 29 29 30 31 32 32 30 26 23 22 27 29 27 22 20 19 20 22 23 22 19 17 16 17 17 17
11 12 12 12 12 13 13 15 16 17 18 21 26 32 38 40 41 43 45 48 52 56 59 62 67 74 81 84 84 82 79 79 80 81 83 82 80 77 76 79 83 85 85 85 84 84 83 81 78 75 70 68 68 69 70 69 65 57 48 40 36 34 34 34 33 32 29 27 27 27 29 32 34 36 34 31 28 26 25 25 27 29 30 28 27 26 23 24 24 23 21 21 20 20 20 20 19 18 17 17 17 17 17
12 12 12 12 12 13 13 13 15 16 17 18 21 25 31 37 40 42 43 45 49 53 56 59 64 71 79 84 86 85 82 80 79 80 81 83 82 80 77 79 82 83 82 82 82 82 83 80 78 76 72 69 68 68 70 72 70 64 56 46 39 36 35 35 35 34 32 29 28 28 29 31 33 35 37 34 31 27 23 22 22 24 27 26 28 30 28 26 24 23 26 25 23 20 21 20 19 18 18 18 18 18 18
12 13 13 13 13 13 13 14 14 16 17 17 18 19 23 29 35 40 42 43 45 48 51 56 62 68 76 82 86 87 86 83 81 80 80 82 83 82 80 80 81 81 81 82 83 83 83 80 78 76 74 71 69 68 69 73 73 70 63 52 44 38 36 36 36 36 34 32 30 28 29 30 32 34 37 36 34 30 26 22 21 22 24 24 28 31 31 29 26 26 30 30 26 23 21 20 19 18 18 18 18 18 18
12 13 14 14 13 13 13 13 14 15 15 16 17 17 18 23 29 34 38 40 41 43 46 52 58 65 73 79 83 86 87 86 84 82 80 81 82 82 81 81 81 81 81 83 83 83 83 81 79 78 76 74 71 69 68 71 73 73 70 59 50 42 38 37 37 37 36 34 32 30 29 30 32 33 36 37 36 33 30 26 23 22 22 24 26 28 31 29 27 27 32 33 30 25 22 21 20 18 18 19 19 18 18
12 13 13 14 14 14 14 14 14 15 15 15 16 16 16 19 23 27 31 34 37 39 43 47 54 62 69 75 80 83 86 87 86 84 82 81 81 82 82 82 81 82 82 83 84 84 83 82 81 80 78 77 75 72 69 70 72 74 74 66 56 46 40 39 38 37 37 36 34 32 30 30 31 32 34 36 36 36 33 30 26 24 22 24 25 27 29 28 27 27 30 34 32 28 24 23 21 20 20 20 19 19 19
11 12 13 14 14 15 15 14 14 15 15 15 15 15 16 17 20 23 27 30 33 36 39 44 50 57 65 71 76 80 84 87 87 86 84 83 82 82 83 82 82 83 85 85 86 86 85 84 83 82 81 81 79 75 71 69 70 73 75 71 62 51 43 40 39 38 38 38 36 35 32 30 30 31 33 35 36 36 36 34 30 27 24 24 25 27 28 28 28 28 29 31 31 29 26 26 24 23 23 23 21 19 19
10 11 12 13 14 15 15 15 15 15 15 15 15 15 15 16 18 20 24 27 31 34 37 41 46 52 58 66 71 76 81 85 87 87 87 86 85 85 84 83 83 83 86 87 87 86 86 85 84 84 84 84 83 79 74 70 70 72 75 73 67 57 47 43 41 40 39 39 38 37 34 31 30 30 32 33 35 36 37 36 34 31 28 27 26 27 28 29 29 29 29 30 30 30 28 28 27 27 26 26 24 22 20
9 10 11 12 13 14 15 15 15 16 16 16 16 16 16 16 17 19 21 25 28 32 35 38 43 49 54 60 66 72 78 81 84 86 87 88 89 89 87 86 84 84 86 88 88 87 87 85 85 85 86 86 86 83 78 73 71 71 74 75 71 62 52 46 43 42 40 40 40 39 36 33 31 30 31 32 33 35 36 37 37 35 33 30 29 28 29 30 31 31 32 31 31 31 31 30 30 30 29 29 28 26 23
8 9 10 11 12 13 14 15 15 15 16 16 16 16 16 16 17 18 19 22 25 29 32 35 41 47 51 54 59 66 73 78 80 83 85 87 89 90 90 88 87 85 86 89 89 89 87 86 85 86 87 87 87 85 82 77 74 72 73 75 73 67 57 50 46 44 42 41 41 40 38 35 32 30 30 30 32 33 35 37 38 38 37 34 32 31 31 32 32 33 34 34 34 34 34 33 33 33 33 32 32 30 27
8 8 8 9 11 12 13 14 14 15 15 16 16 16 16 16 16 17 18 20 23 26 29 33 38 43 46 47 51 57 66 73 77 79 81 84 86 88 91 91 89 87 87 89 90 90 89 87 86 86 86 87 87 86 85 81 77 74 73 75 75 71 63 55 50 47 45 43 42 42 40 37 34 32 30 30 31 32 34 36 38 39 39 38 37 35 34 34 34 35 35 36 36 36 36 36 36 36 36 35 35 35 33
9 8 8 8 9 11 12 13 13 14 15 15 15 16 16 16 16 16 17 19 21 24 27 30 34 38 40 45 49 53 59 66 72 76 78 80 82 84 88 91 91 90 89 89 90 91 91 90 89 88 87 86 86 86 86 84 80 76 74 75 76 74 69 60 54 50 48 46 45 44 42 40 37 34 31 30 30 31 32 35 37 38 40 40 40 40 39 38 37 37 37 37 37 37 38 37 38 38 38 38 37 38 38
10 9 8 8 8 9 11 12 13 13 14 14 15 15 16 16 16 16 16 17 19 21 24 27 29 33 38 45 50 53 55 60 65 70 74 76 78 79 83 88 91 92 91 91 90 90 92 91 91 90 88 87 86 86 86 85 82 79 76 75 76 76 74 66 58 53 51 49 47 46 45 43 40 37 34 32 31 31 32 34 36 38 39 41 43 45 45 43 42 41 40 39 38 38 38 37 38 38 38 38 38 39 40
11 10 9 8 8 9 10 11 12 13 13 14 14 15 15 16 16 16 16 17 18 19 21 24 26 29 35 43 48 52 53 56 59 64 69 72 74 76 78 84 88 91 92 91 90 90 91 91 91 91 90 88 87 87 86 86 85 83 80 78 77 77 76 69 63 57 54 52 50 49 48 46 44 41 37 35 33 32 32 34 36 37 39 41 45 50 52 50 48 46 44 41 39 38 37 36 36 36 37 38 39 39 40
13 12 11 10 9 9 9 10 11 12 13 14 14 15 15 16 16 16 17 17 18 19 20 21 23 26 31 39 46 51 55 56 57 60 63 68 71 74 75 80 85 89 91 92 91 90 90 89 89 89 90 90 89 88 87 87 88 88 85 81 78 77 76 72 66 60 56 54 53 52 51 49 47 44 41 38 36 34 33 34 35 37 38 40 45 51 56 56 54 51 49 45 42 39 37 36 35 35 35 36 38 40 40
14 13 12 11 11 10 10 10 11 12 13 14 15 15 16 16 17 17 18 18 19 20 20 21 22 24 28 34 42 49 54 56 57 58 60 64 69 72 75 79 83 87 90 92 92 92 90 89 88 88 89 89 89 89 88 90 91 90 89 84 80 78 78 74 69 63 59 57 55 54 52 51 49 47 44 41 38 36 35 35 36 36 37 38 42 48 55 57 57 55 51 48 45 42 39 37 36 34 34 34 36 39 41
16 15 14 13 12 11 11 11 11 12 13 14 15 16 16 17 18 19 19 20 21 22 22 22 23 24 27 32 38 45 51 54 56 57 58 61 66 70 74 78 81 85 88 91 93 93 92 90 90 90 91 89 89 89 89 91 91 90 91 86 82 80 79 77 73 67 62 59 57 56 54 52 51 50 47 44 41 39 37 36 36 36 37 37 39 43 51 54 57 56 51 48 47 45 43 40 38 36 35 34 34 36 41
18 16 15 14 13 12 12 11 11 12 13 14 15 16 17 18 18 19 20 21 22 24 25 24 24 25 27 32 37 42 46 50 54 56 57 59 63 68 73 76 79 81 84 87 90 92 93 92 91 90 92 91 89 88 89 90 91 91 90 87 83 80 79 78 76 71 66 63 60 57 56 54 54 53 50 48 45 42 39 37 36 36 37 37 37 39 44 50 53 53 49 48 48 47 46 44 41 38 36 35 34 34 37
18 18 17 15 14 13 13 12 12 12 12 13 15 16 17 18 19 19 20 21 23 24 25 26 26 26 28 31 35 39 42 45 50 54 57 57 60 64 70 74 77 79 80 83 86 89 92 92 91 91 92 92 91 89 88 88 89 88 87 86 84 81 79 79 77 74 69 65 63 60 57 56 56 56 54 51 49 46 43 40 38 37 37 37 37 37 38 42 45 47 49 50 50 49 48 47 44 41 38 36 35 33 34
18 19 18 17 15 14 13 13 12 12 12 13 14 15 17 18 19 19 20 21 22 23 25 26 27 27 28 30 33 36 38 41 45 51 56 57 59 62 67 72 75 77 79 80 83 86 90 91 91 91 91 92 93 92 90 88 87 86 85 84 83 81 78 79 78 75 71 68 66 63 61 59 58 57 56 53 52 50 47 44 41 39 38 37 37 37 36 37 38 41 48 51 52 51 50 49 46 44 40 38 36 34 33
17 18 18 18 17 15 14 14 13 13 12 12 13 14 16 17 18 19 20 21 21 22 24 25 27 28 29 30 31 33 35 38 43 49 57 59 60 62 66 70 74 76 78 79 81 84 87 90 91 91 90 92 93 93 92 90 87 86 84 82 81 80 78 78 77 76 73 71 68 66 65 63 61 59 56 55 53 53 52 49 45 42 40 38 38 37 37 37 36 38 46 49 51 51 51 48 46 44 42 39 37 35 33
16 16 18 18 18 17 15 14 13 13 13 12 12 13 14 16 17 19 21 21 21 22 23 24 26 28 29 30 30 31 33 35 40 47 57 63 64 63 65 69 72 75 77 78 80 82 85 88 90 91 91 91 92 92 92 90 88 86 84 82 80 79 78 78 78 77 77 74 71 68 66 66 65 63 59 57 55 54 54 53 51 47 44 41 40 38 38 37 36 37 42 47 48 49 49 47 44 42 40 39 37 36 34
14 15 16 17 18 18 16 15 14 13 13 13 12 12 13 15 18 21 22 21 21 22 23 23 24 26 27 29 30 32 34 36 38 44 52 63 67 66 65 67 70 73 75 76 77 79 82 86 88 90 90 90 90 90 90 89 88 87 85 83 82 80 79 79 79 80 79 78 75 71 68 68 68 67 65 61 58 56 55 55 55 53 50 46 43 40 39 38 37 37 38 43 46 46 46 44 41 39 38 37 36 36 36
15 15 15 16 17 17 17 16 15 14 13 13 13 12 12 14 19 22 21 20 20 21 22 23 24 25 26 27 28 31 33 35 37 39 43 55 64 68 67 67 68 70 73 75 76 77 78 81 85 87 88 89 89 89 88 88 88 88 87 86 86 84 82 82 82 83 83 82 79 77 73 71 71 71 70 66 62 58 56 56 56 56 55 51 47 44 41 39 38 37 36 39 42 44 44 42 39 37 36 36 35 35 36
15 14 14 15 16 16 17 17 16 15 14 13 13 12 12 13 17 20 18 18 19 20 22 23 24 25 26 26 27 28 30 33 35 37 39 46 55 65 70 69 68 68 70 72 73 75 75 77 80 83 85 87 88 88 88 87 88 88 89 90 90 89 87 86 86 85 85 85 84 82 78 75 73 73 73 71 67 62 58 56 56 56 56 55 52 48 44 41 39 38 36 35 38 41 43 40 38 36 36 36 36 36 36
15 15 15 15 15 15 16 17 17 16 15 14 13 13 12 13 14 14 14 15 17 19 20 21 23 24 25 26 26 27 28 30 33 34 36 38 46 56 67 70 70 69 68 69 70 72 73 74 75 78 81 83 85 86 87 87 87 87 88 89 90 90 89 89 89 87 86 86 86 86 83 79 76 74 74 74 72 68 63 58 55 54 55 55 54 52 48 44 41 39 37 35 35 37 40 39 38 36 36 36 36 36 36
15 15 15 15 15 15 15 16 16 16 16 15 14 13 13 12 12 12 12 13 15 16 18 20 21 22 23 25 25 26 26 27 28 30 32 33 37 45 57 67 71 71 69 69 69 70 71 72 72 74 76 79 81 82 84 85 86 87 88 88 89 90 90 90 90 89 87 87 87 87 87 84 80 76 75 76 76 73 69 62 57 53 52 53 54 53 51 47 44 41 38 36 34 34 36 37 37 36 36 36 37 37 37
15 15 15 15 15 15 14 14 15 15 16 15 15 14 13 13 12 12 11 12 13 14 16 18 20 21 22 23 24 25 25 24 25 25 27 28 31 35 44 58 67 71 71 69 68 68 69 69 69 70 71 74 77 79 81 82 84 85 86 87 88 89 91 92 92 91 89 88 87 87 87 86 84 79 75 76 77 77 74 68 62 56 51 50 51 52 51 49 46 43 40 38 36 34 33 35 35 35 35 36 36 37 37
16 15 15 15 15 15 14 14 14 14 15 15 15 15 14 13 13 12 12 11 11 12 13 15 18 20 21 22 23 24 25 25 24 23 23 24 26 28 33 45 57 67 71 70 68 67 67 68 68 67 67 70 73 76 78 80 81 82 83 84 86 88 90 92 93 92 91 90 88 87 86 86 85 82 78 77 78 79 78 74 69 63 56 51 49 49 49 49 47 45 43 41 39 37 35 34 34 34 35 36 36 37 38
16 16 15 15 14 14 14 13 13 13 13 14 15 15 15 14 13 13 12 12 11 11 11 13 15 18 21 22 24 25 25 25 25 24 23 22 22 23 26 33 44 56 66 69 68 67 65 66 66 67 67 68 70 73 76 78 79 80 80 81 83 85 87 91 93 93 92 91 90 89 87 86 85 84 81 79 79 80 81 78 74 70 64 57 52 48 47 47 46 46 44 44 43 42 40 38 38 37 37 38 38 38 39
16 16 16 15 14 14 13 13 13 13 12 13 14 14 15 15 14 14 13 12 11 11 10 11 13 15 19 22 24 25 25 26 26 25 24 23 22 22 23 27 34 44 55 63 65 65 64 63 64 65 66 67 69 71 74 76 77 78 78 79 80 81 82 86 90 92 92 91 90 89 88 86 85 84 83 81 81 81 83 81 78 75 71 66 61 55 51 48 46 46 45 45 45 46 46 45 44 44 43 43 42 41 41
17 16 16 15 14 14 13 13 12 12 12 12 13 13 14 15 15 15 14 13 12 11 11 11 12 13 16 19 22 25 26 26 27 26 26 25 24 23 23 25 28 34 43 53 59 62 62 61 61 62 64 67 69 71 73 74 75 76 77 77 77 77 78 81 85 88 90 89 89 89 89 87 85 83 83 83 82 82 83 83 81 79 76 74 70 66 61 56 52 49 47 47 47 49 50 51 52 52 51 50 48 46 44
16 16 16 15 15 14 13 12 12 12 11 11 12 12 13 14 15 16 15 15 13 12 11 11 11 12 14 17 20 23 26 27 28 27 26 26 25 24 24 24 25 28 33 41 49 56 61 61 62 61 62 65 68 71 73 73 74 74 75 74 74 74 76 78 81 85 87 87 88 88 89 87 85 82 82 83 83 83 83 84 83 81 79 78 77 75 72 68 63 58 54 52 51 52 54 56 57 58 57 56 55 53 49
16 16 16 15 15 14 13 12 12 11 11 11 11 12 12 13 15 16 16 16 15 14 13 12 12 12 13 15 17 21 24 26 28 28 27 26 25 25 24 24 24 25 27 33 40 48 56 60 63 63 62 63 65 68 71 73 73 73 73 72 72 73 74 76 78 81 84 85 86 88 89 88 86 83 82 82 83 84 84 85 85 84 83 81 80 80 79 76 73 69 65 61 58 58 58 60 61 62 61 61 60 58 55
16 16 16 15 15 14 14 13 12 12 11 11 11 11 12 12 14 15 16 17 16 15 14 13 12 12 12 13 15 18 21 25 27 28 28 26 25 24 24 24 24 24 25 29 35 42 50 57 61 62 62 62 63 65 68 71 73 73 72 71 71 71 73 74 75 77 80 82 85 87 89 88 87 85 83 83 83 83 84 85 85 86 86 85 84 83 82 80 79 77 75 71 68 66 65 65 65 65 64 63 62 61 59
15 15 16 15 15 15 14 14 13 12 11 11 11 11 11 12 13 14 15 17 17 17 16 15 14 13 13 13 14 16 19 23 26 28 28 27 25 24 23 23 23 23 24 28 34 40 48 55 59 60 60 61 62 64 66 69 71 73 73 71 70 70 71 72 72 73 75 79 82 85 89 89 87 85 85 84 83 83 83 84 85 86 87 87 86 85 84 82 81 81 81 79 77 75 73 71 70 68 67 65 64 63 61
15 15 15 15 15 15 15 15 14 14 13 12 11 11 11 11 12 13 14 16 17 17 17 16 15 14 13 14 14 16 18 21 25 27 29 28 27 25 23 22 22 23 24 27 33 39 46 53 56 57 57 58 60 63 65 67 69 71 72 70 69 69 70 70 70 69 70 74 78 82 85 88 87 86 85 85 84 83 83 84 85 86 86 87 87 87 86 85 84 83 83 83 82 81 79 77 75 73 70 68 66 65 64
14 14 14 15 15 15 15 15 15 15 14 13 12 12 11 11 12 12 13 15 16 18 18 17 16 15 14 14 15 16 18 22 25 27 29 30 29 28 25 23 22 22 23 26 30 36 43 50 54 55 54 55 57 60 64 65 67 69 70 70 69 68 69 70 69 68 67 70 75 79 82 86 87 87 84 85 84 84 83 84 84 85 85 86 86 87 88 87 86 85 86 86 85 85 83 82 80 79 75 73 71 69 67
13 13 13 14 14 15 15 16 16 16 15 15 14 13 12 11 11 12 13 14 15 17 18 18 18 17 15 14 15 16 19 23 26 27 27 29 30 30 28 25 24 23 23 25 28 33 40 47 52 54 54 54 55 58 61 64 65 66 68 68 68 67 67 69 69 68 67 69 73 77 80 84 87 89 86 85 84 84 82 83 83 84 85 85 86 87 89 89 88 88 88 89 88 87 86 85 84 82 80 78 75 73 72
14 13 13 13 14 14 15 15 16 16 17 16 15 14 13 12 12 12 13 13 14 16 17 19 19 18 17 15 15 16 19 22 23 24 24 26 28 30 30 27 25 23 23 25 27 31 37 44 50 54 54 53 53 55 58 61 63 64 66 67 67 66 65 67 69 69 68 69 72 75 78 81 86 89 89 86 85 85 84 82 82 83 84 84 86 88 89 89 89 89 89 89 88 88 87 86 86 85 83 81 79 78 78
14 14 14 13 13 13 14 15 16 16 17 17 17 16 15 14 12 12 12 13 14 15 16 17 19 20 19 17 16 16 17 18 19 20 21 23 25 27 29 28 26 24 23 24 27 31 35 41 47 51 53 52 52 52 54 57 59 62 64 66 66 66 64 65 67 69 69 69 71 73 75 77 82 87 91 90 88 87 86 83 81 81 83 85 86 87 89 89 89 88 87 86 86 85 85 85 85 85 85 83 82 81 81
15 14 14 14 13 13 13 14 15 16 17 17 17 17 17 15 14 13 12 12 13 14 15 16 18 19 20 19 18 16 15 16 18 19 20 22 24 27 28 28 26 24 23 24 27 31 35 40 44 48 51 52 51 51 52 54 56 59 62 64 65 65 63 62 63 66 68 68 69 71 72 74 78 82 89 91 91 90 88 85 81 80 81 84 85 86 87 88 87 86 84 83 83 83 83 83 83 84 85 84 83 82 83
15 15 15 14 14 14 14 14 15 16 16 17 17 18 18 17 16 14 13 12 13 13 15 16 17 18 20 21 20 18 17 16 17 18 20 21 24 28 31 31 29 27 24 25 27 31 36 40 43 47 49 51 51 51 51 53 55 57 59 62 64 64 63 61 60 62 64 65 67 68 69 71 74 77 83 87 89 90 89 86 82 79 78 83 84 85 85 84 84 83 83 82 82 82 81 82 82 83 84 84 84 82 82
15 15 15 15 15 14 14 15 15 15 16 17 17 17 18 18 17 16 15 14 13 13 14 15 17 18 19 21 21 20 18 17 17 17 19 20 22 25 30 35 37 35 31 28 28 30 36 41 44 47 49 51 52 52 52 53 54 55 57 60 62 63 63 60 59 59 61 62 64 66 67 69 71 74 78 83 86 86 87 85 82 80 78 82 84 84 84 83 83 83 82 83 83 83 82 82 83 83 83 84 83 82 80
16 15 15 15 15 15 15 15 15 16 17 17 17 18 18 18 19 18 17 15 14 13 13 14 16 17 18 20 21 21 20 18 18 17 18 20 22 26 32 39 41 41 38 33 30 29 34 40 45 49 50 53 54 55 54 54 54 54 55 59 61 63 64 62 60 59 60 60 62 64 66 68 71 74 77 81 83 85 85 84 83 82 80 82 84 85 85 85 84 84 83 84 85 85 84 83 83 83 83 84 83 81 79
16 15 15 15 15 15 15 15 16 17 17 18 18 18 18 19 19 19 19 18 16 15 14 14 15 16 18 19 20 21 21 20 19 18 18 19 23 29 36 39 42 43 44 42 37 33 31 36 41 46 49 51 54 56 57 56 55 55 55 57 61 64 65 67 66 64 62 61 61 62 65 68 72 75 79 81 84 85 84 84 83 83 83 85 86 87 86 86 86 85 84 85 85 85 85 84 83 83 84 85 83 81 79
16 16 16 15 15 15 15 16 16 17 18 18 19 19 19 19 20 20 20 20 19 17 15 14 14 15 16 17 19 20 22 21 20 19 18 18 22 27 36 38 40 42 44 45 45 42 36 36 39 43 47 49 52 55 57 57 58 57 57 57 59 63 67 72 75 75 69 65 64 65 67 70 74 78 82 83 84 85 85 85 85 86 86 88 88 88 87 86 86 86 87 87 86 85 84 83 83 84 85 86 86 84 82
17 16 16 16 15 15 15 16 16 16 17 18 19 20 20 20 20 21 21 21 20 19 17 16 15 14 15 16 18 19 21 22 22 21 19 18 19 22 28 35 39 42 44 45 47 47 44 39 39 41 45 48 51 54 56 59 60 60 58 57 59 63 69 72 77 82 83 76 72 70 72 75 78 79 80 81 82 84 85 85 86 88 89 90 90 90 88 87 86 87 88 88 87 86 85 83 83 84 85 87 87 87 86
17 17 16 16 16 15 15 15 16 16 17 18 19 20 20 21 21 21 22 22 22 21 20 18 16 15 14 15 17 18 19 21 22 22 21 19 19 19 21 25 32 39 44 45 46 46 44 41 40 40 42 46 49 52 56 59 61 62 60 60 61 64 71 73 76 79 84 84 81 78 78 81 82 81 79 79 80 82 83 84 86 88 90 91 91 91 90 88 87 87 88 88 88 87 85 84 83 83 85 86 87 88 87
18 17 17 16 16 16 16 15 16 16 17 18 19 20 21 21 22 22 22 23 23 23 22 20 18 16 15 15 16 17 18 19 21 22 22 21 19 18 19 21 25 30 37 44 48 49 48 46 44 43 41 42 45 51 60 62 64 66 66 63 64 66 70 75 76 75 77 83 85 85 83 83 83 83 81 79 79 80 81 83 85 87 89 91 92 92 91 90 88 88 88 88 88 87 85 84 83 83 84 85 86 87 88
18 18 17 17 16 16 16 16 16 16 17 18 19 20 20 21 22 23 24 24 24 24 23 22 20 18 17 16 15 15 16 18 20 22 23 23 21 19 18 19 22 26 33 41 48 51 53 51 48 46 46 42 43 48 59 65 74 80 79 72 69 68 70 74 77 77 75 78 83 86 87 85 85 85 84 81 80 79 80 81 84 86 88 89 90 91 90 90 89 89 88 88 87 85 84 84 84 84 84 84 85 86 87
19 18 17 17 17 16 16 16 16 16 17 18 19 19 20 21 23 24 25 25 25 25 24 23 22 20 19 17 16 15 15 16 18 20 23 24 23 21 19 18 19 22 26 33 38 43 47 48 48 48 48 44 44 48 58 71 83 90 90 83 76 72 72 74 78 81 80 78 80 82 85 86 87 87 85 83 81 80 80 81 83 85 87 88 88 88 88 89 89 88 88 87 85 84 83 84 84 84 84 84 84 84 86
19 18 18 17 17 16 16 16 16 16 17 18 19 19 20 22 23 24 25 25 25 25 24 24 23 22 21 19 17 16 15 15 17 19 22 24 25 24 21 19 19 19 21 24 28 33 39 41 43 45 47 47 50 56 66 77 84 89 92 85 79 75 74 74 77 82 85 83 82 81 82 84 86 87 85 84 82 80 80 82 84 85 86 86 85 85 84 86 87 88 88 86 84 83 84 85 85 85 84 83 83 85 86